Weather History for Dubuque, IA

Change the Weather History Date:

Sunday, January 26, 2014

  Actual Average Record
Temperature  
Mean Temperature 12 °F 19 °F  
Max Temperature 26 °F 27 °F 58 °F (1944)
Min Temperature -2 °F 11 °F -20 °F (1904)
Degree Days  
Heating Degree Days 53 46  
Month to date heating degree days 1405 1196  
Since 1 July heating degree days 4530 4006  
Cooling Degree Days 0 0  
Month to date cooling degree days 0 0  
Year to date cooling degree days 0 0  
Moisture  
Dew Point 8 °F    
Average Humidity 79    
Maximum Humidity 92    
Minimum Humidity 66    
Precipitation  
Precipitation 0.29 in 0.04 in 1.07 in (1996)
Month to date precipitation 0.88 0.97  
Year to date precipitation 0.88 0.97  
Snow  
Snow 4.20 in 0.40 in - ()
Month to date snowfall 13.0 8.3  
Since 1 July snowfall 35.3 22.9  
Snow Depth 9.00 in    
Sea Level Pressure  
Sea Level Pressure 29.59 in    
Wind  
Wind Speed 21 mph (WNW)    
Max Wind Speed 45 mph    
Max Gust Speed 56 mph    
Visibility 4 miles    
Events Fog , Snow    
T = Trace of Precipitation, MM = Missing Value Source: NWS Daily Summary

Daily Weather History Graph

Daily Weather History Graph

Search for Another Location

Airport:

Trip Planner

Search our weather history database for the weather conditions in past years. The results will help you decide how hot, cold, wet, or windy it might be!

Date:

Astronomy

Jan. 26, 2014 Rise Set
Actual Time 7:22 AM CST 5:09 PM CST
Civil Twilight 6:51 AM CST 5:39 PM CST
Nautical Twilight 6:17 AM CST 6:13 PM CST
Astronomical Twilight 5:44 AM CST 6:46 PM CST
Moon 3:00 AM CST (1/26) 12:58 PM CST (1/26)
Length of Visible Light 10h 47m
Length of Day
9h 46m
Waning Crescent, 23% of the Moon is Illuminated
Jan 26
Waning Crescent
Jan 30
New
Feb 6
First Quarter
Feb 14
Full
Feb 22
Last Quarter

Hourly Weather History & Observations

Time (CST) Temp. Windchill Dew Point Humidity Pressure Visibility Wind Dir Wind Speed Gust Speed Precip Events Conditions
12:04 AM 7.0 °F -8.3 °F 1.0 °F 77% 29.65 in 5.0 mi South 11.5 mph - N/A   Haze
12:10 AM 7.0 °F -8.3 °F 1.9 °F 80% 29.64 in 1.8 mi SSE 11.5 mph - 0.00 in Snow Light Snow
12:30 AM 7.0 °F -10.4 °F 3.9 °F 87% 29.61 in 1.0 mi SSE 15.0 mph - 0.01 in Snow Light Snow
12:43 AM 7.0 °F -10.4 °F 5.0 °F 92% 29.60 in 0.8 mi SSE 15.0 mph - 0.02 in Snow Light Snow
12:53 AM 7.0 °F -9.8 °F 5.0 °F 92% 29.67 in 0.5 mi SSE 13.8 mph - 0.03 in Fog , Snow Snow
1:53 AM 8.1 °F -9.0 °F 5.0 °F 87% 29.62 in 0.5 mi SE 15.0 mph - 0.10 in Fog , Snow Snow
2:32 AM 9.0 °F -9.0 °F 6.1 °F 88% 29.50 in 1.0 mi SE 17.3 mph - 0.04 in Snow Light Snow
2:45 AM 9.0 °F -7.9 °F 6.1 °F 88% 29.49 in 1.2 mi SSE 15.0 mph - 0.05 in Snow Light Snow
2:53 AM 9.0 °F -8.5 °F 6.1 °F 88% 29.56 in 1.2 mi SSE 16.1 mph - 0.05 in Snow Light Snow
3:09 AM 9.0 °F -9.0 °F 7.0 °F 92% 29.47 in 0.8 mi SE 17.3 mph - 0.02 in Snow Light Snow
3:13 AM 9.0 °F -9.5 °F 7.0 °F 92% 29.46 in 1.0 mi SE 18.4 mph - 0.02 in Snow Light Snow
3:31 AM 9.0 °F -7.9 °F 7.0 °F 92% 29.45 in 1.5 mi SE 15.0 mph - 0.03 in Snow Light Snow
3:40 AM 10.0 °F -5.2 °F 7.0 °F 87% 29.45 in 2.0 mi SE 12.7 mph - 0.03 in Snow Light Snow
3:50 AM 10.4 °F -5.4 °F 6.8 °F 85% 29.45 in 4.0 mi SE 13.8 mph - 0.03 in Snow Light Snow
3:53 AM 10.0 °F -5.2 °F 7.0 °F 87% 29.51 in 4.0 mi SSE 12.7 mph 20.7 mph 0.04 in Snow Light Snow
4:53 AM 10.9 °F -7.5 °F 9.0 °F 92% 29.46 in 7.0 mi SSE 19.6 mph - 0.00 in   Overcast
5:53 AM 12.0 °F -3.4 °F 10.0 °F 92% 29.44 in 10.0 mi South 13.8 mph - N/A   Overcast
6:13 AM 12.9 °F 0.7 °F 10.0 °F 88% 29.38 in 10.0 mi South 9.2 mph - N/A   Overcast
6:53 AM 12.9 °F 2.6 °F 10.0 °F 88% 29.43 in 10.0 mi South 6.9 mph - N/A   Overcast
7:53 AM 14.0 °F 3.9 °F 10.9 °F 88% 29.45 in 10.0 mi WSW 6.9 mph - N/A   Overcast
8:08 AM 16.0 °F 4.4 °F 12.0 °F 84% 29.38 in 10.0 mi West 9.2 mph 17.3 mph N/A   Overcast
8:42 AM 23.0 °F 8.3 °F 19.0 °F 85% 29.38 in 9.0 mi WNW 19.6 mph - N/A   Overcast
8:53 AM 24.1 °F 9.0 °F 21.0 °F 88% 29.45 in 7.0 mi WNW 21.9 mph 27.6 mph N/A   Overcast
9:22 AM 26.1 °F 9.3 °F 21.9 °F 84% 29.41 in 1.8 mi WNW 31.1 mph 38.0 mph N/A   Overcast
9:30 AM 26.1 °F 10.4 °F 21.9 °F 84% 29.41 in 2.0 mi WNW 26.5 mph 38.0 mph N/A   Overcast
9:53 AM 25.0 °F 7.8 °F 21.9 °F 88% 29.48 in 2.0 mi WNW 31.1 mph 38.0 mph N/A   Overcast
10:12 AM 25.0 °F 9.9 °F 21.0 °F 85% 29.43 in 4.0 mi WNW 23.0 mph 29.9 mph N/A   Overcast
10:51 AM 26.6 °F 12.7 °F 19.4 °F 74% 29.43 in 5.0 mi WNW 20.7 mph - N/A   Haze
10:53 AM 26.1 °F 11.6 °F 19.9 °F 78% 29.49 in 6.0 mi WNW 21.9 mph - N/A   Haze
11:53 AM 25.0 °F 9.9 °F 19.9 °F 81% 29.49 in 6.0 mi West 23.0 mph 32.2 mph N/A   Haze
12:32 PM 26.1 °F 10.4 °F 19.9 °F 78% 29.44 in 4.0 mi West 26.5 mph 35.7 mph N/A   Haze
12:42 PM 25.0 °F 8.1 °F 19.9 °F 81% 29.44 in 2.0 mi West 29.9 mph 38.0 mph N/A   Haze
12:53 PM 25.0 °F 8.6 °F 19.9 °F 81% 29.48 in 4.0 mi West 27.6 mph - N/A   Haze
1:08 PM 26.1 °F 11.3 °F 19.9 °F 78% 29.42 in 4.0 mi West 23.0 mph 34.5 mph N/A   Haze
1:53 PM 25.0 °F 10.6 °F 19.9 °F 81% 29.51 in 5.0 mi WNW 20.7 mph 32.2 mph N/A   Haze
2:53 PM 24.1 °F 8.3 °F 18.0 °F 77% 29.53 in 8.0 mi WNW 24.2 mph 32.2 mph N/A   Overcast
3:12 PM 24.1 °F 8.3 °F 17.1 °F 75% 29.47 in 2.0 mi WNW 24.2 mph 35.7 mph N/A   Haze
3:21 PM 23.0 °F 8.0 °F 18.0 °F 81% 29.47 in 8.0 mi WNW 20.7 mph - N/A   Overcast
3:53 PM 23.0 °F 7.2 °F 17.1 °F 78% 29.52 in 5.0 mi WNW 23.0 mph 31.1 mph N/A   Haze
4:14 PM 21.9 °F 6.2 °F 17.1 °F 82% 29.49 in 1.8 mi NW 21.9 mph 31.1 mph 0.00 in Snow Light Snow
4:43 PM 21.0 °F 7.1 °F 18.0 °F 88% 29.51 in 1.0 mi NW 16.1 mph - 0.00 in Snow Light Snow
4:53 PM 21.0 °F 9.3 °F 18.0 °F 88% 29.57 in 1.2 mi NW 11.5 mph - 0.01 in Snow Light Snow
5:00 PM 21.0 °F 9.3 °F 19.0 °F 92% 29.52 in 0.8 mi WNW 11.5 mph - 0.00 in Snow Light Snow
5:30 PM 16.0 °F -5.0 °F 14.0 °F 92% 29.58 in 0.2 mi NW 33.4 mph 46.0 mph 0.00 in Fog , Snow Light Snow
5:41 PM 16.0 °F -5.0 °F 12.0 °F 84% 29.60 in 0.5 mi NW 33.4 mph 41.4 mph 0.00 in Fog , Snow Light Snow
5:53 PM 14.0 °F -8.8 °F 7.0 °F 74% 29.68 in 0.2 mi NW 38.0 mph 52.9 mph 0.00 in Snow Heavy Snow
5:59 PM 12.9 °F -10.0 °F 7.0 °F 77% 29.63 in 0.5 mi NW 36.8 mph 56.4 mph 0.00 in Snow Snow
6:26 PM 12.0 °F -11.0 °F 3.9 °F 70% 29.66 in 1.2 mi NW 35.7 mph 41.4 mph 0.00 in   Overcast
6:40 PM 10.9 °F -9.6 °F 1.0 °F 64% 29.67 in 1.2 mi NW 25.3 mph 44.9 mph 0.00 in   Overcast
6:45 PM 10.9 °F -9.2 °F 1.0 °F 64% 29.67 in 3.0 mi NW 24.2 mph 34.5 mph 0.00 in   Haze
6:53 PM 10.0 °F -11.5 °F 1.0 °F 67% 29.74 in 5.0 mi NW 27.6 mph 35.7 mph 0.00 in   Haze
7:04 PM 10.0 °F -13.4 °F 1.0 °F 67% 29.68 in 1.8 mi WNW 34.5 mph 42.6 mph N/A   Haze
7:12 PM 9.0 °F -14.0 °F -0.0 °F 67% 29.68 in 1.0 mi NW 31.1 mph 48.3 mph 0.00 in   Unknown
7:23 PM 8.1 °F -15.9 °F -0.9 °F 67% 29.69 in 1.2 mi WNW 33.4 mph 49.5 mph 0.00 in   Haze
7:32 PM 8.1 °F -13.4 °F -0.9 °F 67% 29.70 in 3.0 mi WNW 25.3 mph 40.3 mph 0.00 in   Haze
7:40 PM 6.1 °F -19.5 °F -0.9 °F 73% 29.71 in 1.8 mi WNW 36.8 mph 46.0 mph 0.00 in   Haze
7:48 PM 5.0 °F -21.3 °F -0.4 °F 78% 29.72 in 0.8 mi WNW 38.0 mph 49.5 mph 0.00 in Snow Light Snow
7:53 PM 5.0 °F -19.7 °F -0.9 °F 76% 29.78 in 0.8 mi WNW 32.2 mph 49.5 mph 0.00 in Snow Light Snow
8:01 PM 5.0 °F -19.0 °F -0.9 °F 76% 29.72 in 1.0 mi WNW 29.9 mph 40.3 mph 0.00 in   Haze
8:16 PM 3.9 °F -21.2 °F -2.0 °F 76% 29.73 in 1.8 mi WNW 32.2 mph 43.7 mph 0.00 in   Haze
8:40 PM 3.0 °F -23.7 °F -2.0 °F 80% 29.76 in 0.8 mi NW 36.8 mph 49.5 mph 0.00 in   Unknown
8:53 PM 1.9 °F -22.8 °F -4.0 °F 76% 29.84 in 0.8 mi NW 28.8 mph 50.6 mph 0.00 in   Unknown
9:01 PM 1.9 °F -23.6 °F -4.0 °F 76% 29.79 in 1.5 mi NW 31.1 mph 43.7 mph 0.00 in   Haze
9:35 PM 1.0 °F -22.8 °F -6.0 °F 72% 29.83 in 3.0 mi NW 25.3 mph 36.8 mph 0.00 in   Haze
9:53 PM -0.0 °F -24.3 °F -6.0 °F 76% 29.91 in 2.5 mi NW 25.3 mph 39.1 mph 0.00 in   Haze
10:34 PM -0.9 °F -25.0 °F -6.0 °F 79% 29.88 in 3.0 mi NW 24.2 mph 32.2 mph N/A   Haze
10:53 PM -0.9 °F -27.1 °F -7.1 °F 75% 29.96 in 4.0 mi NW 29.9 mph 35.7 mph N/A   Haze
11:50 PM -2.2 °F -23.5 °F -9.4 °F 71% 29.94 in 10.0 mi NW 17.3 mph 31.1 mph N/A   Scattered Clouds
11:53 PM -2.0 °F -25.0 °F -9.0 °F 72% 30.01 in 10.0 mi NW 20.7 mph 31.1 mph N/A   Scattered Clouds